Theta_e
313 313 313 313 313 312 312 312 311 310 309 309 307 311 306 305 301 310 312 313 310 305 298 301 299 296 297 300 299 301 298 297 297 297 297 296 297 296 296 295 293 295 293 294 293 294 291 293 292 293 294 294 296 298 297 299 297 297 296 297 299 300 295 292 293 299 301 303 305 306 307 306 303 304 307 306 304 305 303 303 305 302 304 301 301 298 303
313 313 313 313 313 312 312 312 311 311 309 310 310 308 305 305 303 306 311 313 311 302 294 294 295 297 298 298 297 300 298 298 296 296 297 296 296 295 295 296 296 294 297 295 292 295 288 293 292 292 295 293 300 298 298 299 296 295 295 293 299 292 296 293 290 292 295 297 301 301 305 305 303 303 306 307 308 308 307 306 306 301 303 304 301 296 302
313 313 313 313 313 312 312 312 311 311 311 312 310 303 304 304 307 307 307 311 307 297 299 297 295 295 295 295 295 295 297 298 299 297 296 298 297 296 294 295 297 296 297 295 295 295 292 290 295 294 294 294 299 298 298 299 297 298 299 298 301 294 294 292 287 286 285 286 288 290 295 298 302 304 305 308 305 305 303 300 303 297 304 306 302 302 309
313 313 313 313 312 312 312 312 311 311 311 310 311 306 305 302 299 303 306 307 305 303 304 300 297 295 295 294 294 295 294 297 299 299 297 298 298 297 298 297 297 295 294 293 292 292 295 292 291 292 292 294 296 298 298 298 298 299 299 300 300 295 295 294 292 291 291 294 295 298 300 299 297 302 303 303 305 307 306 305 302 299 304 303 306 307 308
313 313 313 312 312 312 312 311 311 311 311 311 310 309 305 305 298 299 296 303 302 299 301 299 298 294 297 292 294 292 293 295 296 298 294 299 297 296 296 295 293 293 292 291 291 292 292 296 294 292 292 295 295 299 298 299 299 299 298 301 299 295 291 293 294 294 295 297 298 299 299 296 297 297 299 302 302 304 304 301 300 307 303 298 307 310 306
313 313 313 312 312 312 311 311 311 311 311 310 311 304 305 298 300 302 301 295 293 296 296 299 297 297 298 294 296 292 292 293 291 296 299 299 299 295 296 294 294 294 293 293 290 293 293 294 292 295 295 295 297 296 298 297 298 299 298 301 296 293 289 292 293 292 295 296 297 298 298 297 298 298 298 298 301 302 301 303 305 307 303 300 308 310 308
312 312 313 313 312 312 312 311 311 310 309 309 311 303 305 304 302 301 303 296 297 297 297 299 297 296 296 295 295 292 292 291 293 293 294 295 295 297 290 291 293 294 295 293 290 292 288 289 294 293 293 293 294 293 296 298 300 298 297 298 299 295 291 293 293 292 293 295 296 297 297 297 298 298 299 300 300 300 302 303 305 306 307 309 309 310 310
312 313 313 313 313 313 312 312 311 311 308 312 309 305 301 298 298 297 301 300 298 298 298 297 296 294 296 293 293 294 293 292 294 296 294 291 293 297 292 292 294 295 295 296 292 294 294 293 290 294 294 294 295 293 294 294 298 298 295 295 298 293 290 293 293 291 292 294 296 297 297 297 296 298 299 299 300 301 303 304 306 307 306 307 307 307 309
313 312 313 313 312 312 312 312 311 310 309 309 305 303 306 304 306 304 298 296 297 298 298 296 295 293 294 293 294 294 294 293 295 294 297 295 293 295 292 294 295 296 296 295 295 297 297 297 296 297 296 291 296 293 293 297 295 296 295 296 295 294 291 294 292 287 288 293 294 295 297 297 296 296 297 298 299 298 301 302 308 306 305 307 307 306 306
312 312 313 313 313 312 312 312 312 311 309 308 307 302 307 307 308 307 302 294 298 296 297 297 295 291 294 295 294 293 293 295 296 292 297 298 298 298 297 296 294 295 295 295 296 297 297 297 298 299 299 300 298 299 297 297 294 294 294 297 293 293 291 289 289 286 287 292 295 295 296 295 293 294 297 300 301 302 308 309 310 310 312 309 303 306 317
312 312 313 313 313 313 313 313 313 311 312 308 306 304 305 303 302 304 302 294 296 296 295 295 294 294 295 296 295 296 295 296 296 290 292 297 298 300 299 297 294 293 294 297 301 302 302 302 302 302 300 300 299 299 299 299 298 297 295 295 294 294 292 289 291 284 286 291 294 295 292 285 288 302 304 303 300 306 305 305 308 310 311 310 311 312 313
312 312 312 312 313 313 313 313 313 312 309 312 310 307 308 308 307 304 299 293 293 297 295 293 294 295 295 296 296 295 295 295 295 297 294 296 298 299 299 297 296 291 299 303 304 303 303 303 303 303 301 300 299 299 299 298 298 301 299 295 293 292 292 290 293 287 285 290 292 289 284 286 301 307 308 306 304 311 307 307 309 308 310 310 311 311 310
312 312 312 313 313 313 314 313 313 313 311 314 312 306 309 311 306 302 300 297 293 295 294 295 298 297 297 297 296 296 297 297 298 298 298 297 296 297 298 297 296 297 303 302 302 301 297 296 297 297 297 298 298 298 297 298 298 299 300 299 294 291 290 291 290 290 289 287 287 280 286 299 306 307 306 311 312 310 308 305 305 307 307 308 308 308 309
312 312 313 313 314 314 314 314 313 314 312 312 311 311 312 310 305 303 300 296 295 298 298 297 297 296 296 296 296 296 297 297 298 299 296 299 297 297 299 300 301 303 303 303 300 299 294 295 290 291 291 293 294 293 297 298 298 298 298 299 298 294 293 291 287 292 283 286 286 287 296 295 301 300 303 303 303 304 303 299 300 306 307 307 307 306 305
312 312 313 314 314 314 314 313 314 313 313 311 316 314 313 313 310 306 305 302 294 297 299 292 296 296 296 296 297 295 295 296 295 296 299 300 298 299 300 302 304 303 303 300 296 296 293 292 287 285 285 284 281 284 293 290 296 299 299 299 298 296 291 292 288 287 290 285 284 286 288 284 294 297 302 303 305 306 306 306 300 305 306 308 307 305 303
312 313 313 314 314 314 314 314 314 313 313 310 315 313 315 315 314 310 306 301 298 291 296 300 300 298 296 296 297 295 294 295 295 296 296 297 297 300 302 304 304 304 302 299 299 295 294 288 284 283 281 282 286 284 284 289 288 297 299 299 297 296 296 295 290 287 288 286 282 282 283 288 295 297 299 301 303 306 307 303 299 302 305 306 306 304 302
312 313 313 314 314 314 314 314 314 313 313 312 312 313 311 315 312 309 305 302 300 295 303 303 302 300 298 297 297 296 297 295 296 293 292 294 296 298 300 303 305 303 299 298 296 292 289 286 286 285 285 286 283 282 285 285 284 288 296 297 294 292 291 291 286 287 287 286 283 282 289 288 296 299 300 300 303 304 303 294 295 300 304 305 305 302 301
312 313 314 313 314 314 314 314 314 313 313 311 313 311 312 315 315 313 308 303 299 298 302 304 301 298 297 298 296 299 301 300 298 299 296 297 298 298 298 300 298 301 302 295 296 291 287 286 283 283 282 288 287 286 280 285 284 285 286 288 287 288 289 290 285 287 287 286 285 288 291 299 300 299 301 302 303 304 294 290 295 302 304 305 304 302 301
312 313 313 313 314 314 314 314 314 313 313 312 315 313 312 314 315 313 308 305 302 295 303 306 306 302 304 305 302 302 301 300 299 295 293 294 297 300 301 300 301 294 299 295 295 289 287 286 292 287 284 286 288 283 286 284 284 290 290 286 286 288 289 290 290 286 285 286 284 285 291 297 299 301 303 303 298 293 292 296 302 304 304 305 305 303 302
312 313 313 313 313 314 314 314 313 313 313 312 313 311 312 315 315 314 308 303 305 301 304 305 306 302 305 302 300 300 301 300 300 296 294 291 300 301 298 294 299 299 297 297 289 292 288 285 286 287 285 286 287 289 286 285 287 285 286 290 287 287 284 285 285 289 289 288 285 284 281 294 300 300 300 301 292 292 296 301 302 304 304 304 304 303 302
312 313 313 313 313 313 314 314 313 313 313 313 312 312 310 315 315 316 315 310 304 299 301 309 307 306 307 305 305 304 302 298 300 297 298 297 301 299 288 289 295 295 292 292 286 288 289 286 288 286 289 287 288 289 283 285 286 291 289 287 287 291 285 286 287 291 284 284 282 283 289 294 301 298 290 296 298 300 301 300 301 304 305 303 303 303 303
312 312 313 313 313 313 313 313 313 312 313 313 312 313 309 313 316 316 315 313 306 303 304 310 311 309 310 310 310 310 307 306 305 306 301 298 301 298 297 298 298 298 298 297 294 293 295 293 293 289 286 288 293 286 288 285 282 288 294 292 283 291 287 289 285 291 287 284 288 293 298 299 301 301 300 301 302 303 303 302 302 303 303 305 302 302 303
312 312 312 313 313 313 313 313 312 313 312 313 313 313 309 312 313 315 315 307 309 309 311 310 311 311 311 311 312 313 312 312 310 308 307 301 298 300 298 297 297 301 301 301 294 293 294 293 289 293 288 289 285 286 288 287 285 288 285 292 290 295 295 296 293 290 295 297 297 298 298 299 300 302 302 300 301 302 302 301 301 303 304 305 303 302 303
312 312 312 312 313 313 313 312 312 312 312 313 314 313 312 312 313 312 311 309 305 302 308 308 306 303 304 305 309 313 312 311 311 311 311 308 297 296 300 303 303 302 301 302 304 297 296 295 293 295 287 290 290 287 284 284 284 288 289 287 292 295 296 294 289 293 290 286 296 296 296 298 301 300 301 302 302 302 303 302 301 303 305 306 306 305 305
311 312 312 312 312 312 312 312 312 312 312 312 313 315 315 312 314 312 308 303 304 303 299 302 303 307 309 312 312 311 312 313 314 312 310 309 305 298 297 303 305 301 299 301 305 301 302 292 294 293 286 293 293 286 292 287 286 292 285 287 289 290 298 292 291 291 289 289 295 296 299 300 301 301 298 298 300 301 303 302 303 304 306 307 307 307 306
311 311 312 312 312 312 312 312 312 312 311 312 312 314 312 312 314 314 312 311 309 306 300 299 303 310 313 310 307 310 313 313 312 311 310 309 308 307 305 306 305 308 306 306 304 301 299 298 297 295 290 291 299 290 288 292 291 294 289 287 292 294 297 286 291 289 293 295 296 296 297 299 299 299 300 301 301 301 301 302 302 304 305 307 308 308 308
311 311 312 312 312 312 312 312 312 312 312 311 312 315 314 314 315 312 310 308 305 301 304 300 305 308 311 308 310 313 312 312 312 310 310 309 308 309 308 306 304 304 304 302 303 301 301 299 296 292 295 294 298 294 295 293 292 289 288 292 297 293 288 293 292 287 287 287 290 294 288 288 294 297 298 299 301 300 300 301 302 303 304 306 306 307 308
311 311 311 312 312 312 312 311 311 311 311 311 312 315 316 314 314 315 316 312 307 300 301 302 304 306 309 309 311 312 312 312 311 309 309 308 309 308 307 305 305 304 304 303 298 298 296 293 292 296 297 297 294 292 297 296 295 291 290 291 295 290 291 291 286 285 285 292 294 296 295 295 297 298 299 300 301 300 300 300 300 302 304 306 306 306 306
311 311 311 311 311 311 311 311 310 311 311 311 315 313 313 314 316 316 316 317 313 306 304 305 308 308 301 304 312 310 311 311 310 309 308 308 307 308 306 306 304 304 303 304 302 299 296 295 298 295 294 299 296 292 294 289 288 285 288 294 296 296 297 295 294 294 295 297 296 297 296 293 297 300 300 300 302 301 299 300 301 302 304 306 306 307 306
311 311 311 311 311 311 311 311 311 310 310 314 313 312 310 312 316 316 315 315 314 309 303 302 300 303 310 309 307 309 309 310 309 309 308 307 306 306 307 306 305 305 304 301 300 296 298 297 298 300 301 305 297 294 291 290 288 289 294 296 297 298 298 298 298 295 293 298 298 298 298 298 300 300 300 301 302 301 300 300 301 302 304 306 306 307 308
311 311 311 311 311 311 311 310 311 310 309 314 313 308 307 303 311 318 314 316 316 309 305 304 302 307 307 310 310 308 308 308 308 307 307 307 307 307 307 307 306 305 300 301 300 299 300 295 298 298 302 301 300 294 291 290 287 288 293 295 296 297 297 297 299 299 299 298 299 299 299 299 299 299 300 301 301 301 301 302 304 305 305 306 306 307 307
311 311 311 311 311 311 311 310 311 310 312 313 312 311 311 311 316 318 315 316 315 308 303 302 303 303 303 306 310 312 309 309 308 308 308 309 305 307 307 307 303 306 305 303 301 300 298 299 297 298 297 300 300 294 294 290 288 287 294 295 297 297 298 298 298 299 299 300 298 297 296 297 298 296 295 300 300 301 301 302 303 304 305 306 308 308 308
311 310 310 311 310 310 311 311 310 311 315 314 310 309 310 308 309 314 315 316 312 307 307 303 299 302 302 305 308 310 311 309 307 308 305 309 304 308 304 308 307 307 306 304 298 296 300 301 299 297 298 305 296 294 292 289 290 295 295 297 297 298 297 299 300 299 299 299 298 294 293 295 297 299 299 300 301 300 300 300 302 304 304 305 306 306 307
310 310 310 310 310 311 311 311 311 310 310 311 313 315 319 309 312 311 317 316 310 308 306 302 300 301 301 308 302 309 313 306 304 305 302 308 310 305 304 306 307 303 305 301 301 302 303 303 297 298 300 297 298 293 288 292 295 296 296 297 298 298 298 298 298 297 298 299 300 300 299 299 300 300 300 299 299 300 301 301 302 301 303 304 304 305 306
309 309 309 310 310 311 311 311 312 311 313 314 315 319 316 310 312 313 315 312 304 303 303 304 305 299 299 301 300 303 312 306 303 306 301 307 310 305 307 303 305 299 303 308 302 299 297 297 301 296 292 299 294 287 291 294 295 296 297 296 297 297 296 295 295 297 299 300 300 300 300 300 299 297 297 298 298 299 299 299 300 300 300 302 304 305 307
309 309 310 311 311 312 313 312 315 314 312 312 315 314 313 313 314 318 318 316 310 303 302 302 302 299 300 294 295 302 311 305 308 309 307 307 306 310 307 304 298 303 307 303 298 300 297 301 298 292 297 291 288 291 294 298 296 296 297 296 297 297 296 295 296 297 298 300 300 300 299 299 298 297 297 297 298 298 298 298 299 300 300 300 302 305 307
311 311 311 311 314 314 313 315 317 315 314 316 316 315 315 316 316 316 313 311 313 312 304 302 298 300 303 301 304 308 307 298 307 304 306 303 301 306 304 302 298 302 301 300 300 298 301 305 297 291 290 288 290 297 300 301 300 299 299 299 299 299 299 298 298 298 297 297 298 297 298 298 298 298 297 296 297 297 297 296 297 298 298 299 301 303 306
311 312 316 315 314 313 313 313 315 316 316 315 315 312 310 310 305 306 305 303 307 307 305 304 298 305 307 303 299 309 305 302 306 299 302 305 301 300 304 301 300 300 292 296 299 304 302 300 295 291 291 296 298 298 299 302 302 303 301 300 300 300 300 300 299 297 295 294 294 295 296 296 296 296 296 295 296 296 297 298 299 300 301 301 302 305 308
309 317 316 317 315 314 313 315 317 315 315 315 314 308 305 307 304 302 305 305 303 300 305 303 302 306 304 302 304 309 306 303 301 302 297 304 301 295 300 292 301 299 294 293 297 305 293 296 295 292 290 294 296 298 301 303 302 302 301 301 301 302 301 300 300 298 296 296 296 297 296 295 294 295 296 296 296 297 298 298 299 300 300 301 303 306 307
316 315 316 316 314 315 316 316 315 315 313 308 310 308 304 308 301 298 309 300 300 305 305 301 307 307 308 304 302 304 310 305 300 299 299 301 305 297 301 299 301 297 289 288 294 303 295 287 293 290 289 294 295 299 300 301 300 301 301 301 302 301 302 301 301 301 300 299 300 299 299 299 299 297 296 296 296 296 296 298 299 299 300 300 304 305 306
316 317 317 315 317 316 316 316 316 314 310 307 307 308 306 297 307 307 305 300 300 301 308 304 307 306 308 309 307 303 311 309 310 310 305 300 306 304 298 292 303 293 288 288 299 299 296 292 290 288 290 296 297 299 300 300 300 301 302 302 302 302 301 301 301 301 301 300 299 299 300 300 299 298 298 297 297 297 297 298 298 299 299 300 301 304 307
319 318 318 319 318 319 316 314 312 309 309 310 303 294 299 300 305 306 304 295 296 299 304 306 301 302 302 306 306 309 310 314 311 307 304 296 303 298 295 298 300 290 287 297 302 299 294 287 287 288 295 298 300 300 300 299 300 301 301 302 303 304 304 301 302 302 302 300 300 300 300 300 299 299 298 298 297 297 298 298 298 299 300 300 302 303 306
306 311 317 317 315 314 315 305 311 310 294 294 293 290 297 292 296 295 298 303 308 303 304 311 307 311 312 313 311 312 310 313 306 302 301 298 303 302 297 293 291 287 292 302 298 291 288 287 287 290 297 299 300 300 300 300 301 301 301 302 303 303 303 301 300 301 302 301 301 300 299 299 299 299 299 299 298 298 298 299 300 300 300 300 301 302 304
318 317 314 316 310 313 312 292 311 305 295 295 292 289 296 295 297 300 296 298 301 300 304 301 303 302 300 312 306 308 310 310 310 308 304 306 301 294 294 289 291 299 301 296 292 287 288 289 293 296 299 300 300 300 301 301 301 300 300 301 302 302 302 301 302 301 301 302 302 301 301 300 299 299 299 299 299 298 298 298 300 300 300 301 300 301 303
314 312 309 307 300 306 299 289 304 295 290 296 297 298 298 294 297 299 297 303 303 300 305 306 305 304 302 310 310 311 307 305 310 301 295 300 296 297 293 292 297 297 293 287 289 289 289 288 296 299 300 299 300 300 301 301 301 300 300 300 300 301 301 300 300 300 301 301 301 300 299 299 299 299 298 298 299 299 298 297 299 299 299 299 300 300 302
312 306 301 294 289 294 294 292 294 291 301 302 301 301 300 301 302 301 305 306 302 303 303 304 304 305 303 310 302 302 307 307 301 299 301 302 295 291 298 300 299 293 291 288 286 285 287 291 295 296 298 300 300 300 301 301 302 302 301 299 299 300 300 300 300 300 301 301 301 300 300 300 299 299 298 299 299 299 299 299 300 299 299 299 299 299 301
311 314 303 298 292 297 305 293 297 302 303 304 305 305 304 304 305 305 309 307 303 305 305 308 306 304 300 303 305 306 306 305 300 303 302 296 294 296 301 295 287 288 285 284 284 286 290 294 297 300 300 300 301 301 301 301 301 301 301 301 300 300 300 299 300 300 301 302 301 300 300 300 300 300 300 299 299 300 300 300 300 300 299 298 299 301 301
302 307 305 293 292 297 296 302 307 307 307 307 307 307 307 308 303 305 309 309 308 307 305 304 302 303 305 309 305 301 301 303 299 300 300 296 299 295 289 290 288 290 290 287 287 293 294 296 299 300 300 300 302 301 300 300 301 301 301 300 300 300 299 299 299 300 301 301 301 300 300 300 300 300 300 300 300 300 300 300 300 300 299 299 299 300 300
315 301 297 296 303 303 303 306 305 303 306 308 308 307 306 305 303 303 307 309 307 305 306 304 302 301 298 302 300 300 297 303 294 292 299 297 291 286 286 283 284 283 292 293 293 295 296 298 302 302 302 301 301 302 300 300 300 300 300 300 300 300 300 299 300 301 301 301 301 300 300 301 300 300 300 300 299 299 301 301 300 299 299 299 299 299 299
304 302 306 301 302 304 308 308 306 304 306 311 309 306 305 302 299 307 310 307 308 307 306 305 306 300 299 300 293 297 296 301 298 296 296 293 293 294 290 284 286 287 291 296 296 297 299 301 304 303 303 303 303 303 301 300 300 300 301 301 300 301 300 300 300 301 301 300 301 301 302 301 301 300 300 300 300 301 301 301 301 300 300 300 299 299 299
310 303 303 309 303 303 304 301 302 302 304 307 309 307 303 302 303 306 311 308 307 305 304 300 300 297 295 293 292 289 292 301 298 296 294 293 296 293 288 286 290 294 296 299 299 300 301 304 303 303 303 303 303 304 301 300 300 300 300 300 301 300 300 299 299 299 300 300 301 301 300 301 301 302 302 302 301 300 300 300 301 301 300 300 300 300 299
299 297 302 308 310 308 308 308 309 308 309 308 309 308 307 308 309 309 311 309 305 301 300 304 299 296 292 290 293 299 301 298 294 296 293 296 298 293 292 294 295 297 298 298 299 301 301 305 305 304 304 303 304 304 301 301 301 300 300 300 300 300 299 299 299 299 299 300 300 301 302 302 303 303 303 301 300 299 298 298 300 301 301 301 301 301 300
Wind_Speed
18 18 19 18 18 17 18 19 18 18 20 14 12 11 4 5 6 5 13 14 9 5 7 4 4 6 5 4 4 0 2 4 3 2 2 3 0 4 4 3 5 2 4 5 7 5 7 8 8 6 5 7 3 5 6 5 6 6 3 4 3 2 7 9 12 12 14 22 24 19 15 13 12 12 10 15 22 19 17 15 14 16 14 13 11 12 7
18 18 17 16 16 16 17 18 18 17 16 12 12 8 4 3 5 4 11 15 6 3 6 6 5 5 5 2 5 4 5 4 1 1 4 4 2 4 4 4 3 6 2 7 8 4 7 2 3 6 3 5 8 4 4 3 5 4 5 4 6 6 6 9 10 9 11 12 15 16 14 9 13 16 14 13 15 18 9 6 6 7 15 18 12 13 8
17 16 14 14 14 15 16 17 17 16 14 13 9 6 5 5 4 1 7 12 13 9 6 5 6 5 5 4 4 2 2 5 6 4 4 3 3 5 1 3 5 5 5 8 7 7 7 8 9 9 7 7 2 4 6 2 5 3 5 5 7 7 7 5 8 12 12 13 15 15 16 14 11 15 20 19 11 15 13 14 10 10 12 16 14 13 7
16 15 14 14 13 15 15 15 16 16 14 14 8 4 5 5 5 5 5 6 8 8 6 7 6 5 3 4 5 3 1 2 4 6 2 6 3 4 3 2 2 4 7 8 7 8 7 8 6 7 8 7 6 2 3 6 7 6 8 9 7 5 7 9 11 11 13 5 10 9 8 9 8 16 14 11 13 12 11 9 15 15 12 13 13 11 9
15 15 16 15 13 14 13 14 15 16 15 13 7 4 3 2 4 6 5 1 8 7 8 8 7 6 2 2 3 4 3 3 3 4 3 4 4 2 3 3 5 4 7 6 9 9 10 8 9 9 11 8 8 8 8 8 9 7 8 9 7 7 9 12 14 18 20 21 16 15 15 14 14 12 10 9 9 10 14 16 16 12 9 15 14 13 13
15 16 17 15 12 12 12 13 14 16 16 19 8 4 5 2 3 3 3 3 5 5 7 7 7 7 4 5 1 5 4 5 4 2 2 5 4 6 3 2 2 3 5 6 8 6 8 9 11 8 7 8 7 9 8 9 6 6 9 6 8 7 9 10 12 17 20 23 22 16 14 14 15 15 14 13 8 8 14 18 21 20 16 13 12 11 16
15 17 16 14 12 11 11 12 13 14 17 15 7 4 5 4 4 4 3 1 4 5 4 5 5 7 5 4 6 5 6 6 5 3 4 3 1 3 3 2 5 5 5 5 7 7 8 6 3 5 7 9 9 9 9 9 7 8 8 6 6 6 9 11 12 16 17 20 22 18 18 17 16 15 15 14 13 13 13 13 14 21 15 12 13 4 9
16 15 15 13 12 12 10 11 10 12 18 15 3 6 3 4 3 3 4 4 4 4 3 5 4 6 5 2 6 5 6 6 7 5 5 4 2 3 5 4 4 5 5 6 8 8 8 9 11 8 10 11 9 9 9 8 6 6 9 7 6 7 7 7 9 11 14 17 20 20 19 18 17 17 17 17 14 14 14 14 15 16 20 19 18 15 13
15 15 14 14 13 12 12 10 10 10 14 5 6 6 5 3 4 2 2 2 4 2 3 4 4 4 4 4 5 4 5 6 7 7 5 4 5 5 6 6 8 6 8 8 10 11 11 12 13 13 12 12 9 8 5 5 6 6 6 6 6 8 9 8 9 11 13 12 17 20 18 18 19 18 18 17 16 15 14 15 11 15 16 17 15 16 18
14 14 14 14 12 11 11 10 9 9 10 4 4 5 3 2 1 2 3 2 2 2 2 3 1 5 5 5 5 5 5 6 6 6 2 3 5 6 7 7 8 7 7 8 8 8 10 12 14 13 13 13 15 14 15 14 13 10 9 7 9 8 8 8 7 10 11 13 15 16 16 16 18 19 15 16 15 13 6 5 2 3 4 9 15 14 3
14 14 13 14 13 12 11 9 9 6 7 4 4 4 4 4 3 1 2 0 3 3 2 4 5 3 3 4 4 2 4 5 2 4 3 6 5 5 7 7 6 6 7 8 9 11 13 14 16 15 16 18 18 17 17 20 18 16 12 9 11 10 9 9 7 9 9 11 11 11 11 16 15 7 11 17 18 11 11 9 8 4 3 3 3 4 8
13 14 13 13 13 13 12 10 9 4 4 3 2 2 3 2 1 2 3 3 4 2 3 4 5 4 5 5 5 5 6 7 6 4 9 7 7 6 6 6 6 6 7 10 11 12 15 16 17 17 19 20 20 21 22 22 20 16 15 16 11 11 10 9 7 9 9 10 12 10 14 14 3 2 7 15 17 14 9 9 3 2 1 3 4 4 7
13 13 13 13 13 12 11 9 7 5 4 3 1 2 0 1 2 2 2 3 3 3 2 4 4 3 4 5 6 6 6 6 5 6 7 7 6 5 4 7 7 9 10 12 14 14 12 12 13 13 14 13 14 17 20 22 22 20 17 17 14 12 11 8 8 7 7 9 9 6 9 2 2 7 13 13 9 14 15 9 5 4 2 2 1 4 6
13 13 13 13 13 12 10 8 6 4 3 3 3 1 1 2 1 0 1 3 2 3 3 1 1 5 6 6 6 7 6 4 5 4 6 3 6 7 6 6 7 8 9 10 11 9 9 7 8 7 7 8 10 11 11 13 17 20 22 19 16 16 11 9 9 7 8 8 9 12 6 3 7 3 7 9 0 3 2 3 3 4 3 4 3 5 8
12 13 13 13 12 10 7 6 4 4 2 4 3 1 2 2 2 1 1 3 2 2 2 4 5 6 6 6 7 6 4 4 5 3 4 4 6 5 8 7 6 8 7 9 7 7 7 7 7 7 7 4 6 6 8 8 8 16 18 16 16 16 15 10 9 7 10 9 8 8 11 11 6 2 8 9 10 11 11 6 5 3 5 5 4 6 8
13 13 13 12 10 9 8 6 4 4 3 3 3 3 1 2 2 1 1 2 3 1 3 3 4 5 5 5 5 5 5 6 5 6 5 3 4 6 4 5 6 6 6 7 5 6 6 7 8 7 6 8 5 6 4 3 5 9 14 16 17 16 13 9 10 8 5 9 9 7 8 4 6 7 10 11 13 13 13 6 6 3 4 5 6 7 8
13 13 12 11 10 9 8 7 5 3 3 2 3 2 1 2 3 3 3 2 1 2 3 3 3 4 5 4 3 2 5 5 5 6 5 5 7 7 4 4 5 5 5 7 5 3 5 6 6 7 8 3 5 6 7 3 1 3 13 14 17 16 11 9 8 11 10 9 7 9 5 2 8 11 12 13 14 9 7 8 6 5 3 5 7 8 9
13 13 11 10 10 9 8 6 5 3 2 2 3 2 0 2 3 3 3 2 2 1 1 3 5 4 4 4 5 4 4 3 3 3 4 5 5 6 8 5 6 2 4 7 6 6 7 6 8 9 11 1 2 2 3 5 5 6 8 11 9 9 8 9 12 11 11 11 9 8 10 1 10 12 14 10 11 7 5 4 5 3 4 6 7 8 8
12 11 10 9 9 9 7 6 4 2 2 2 3 2 1 1 2 3 3 2 2 1 3 1 2 4 4 3 5 4 4 5 4 4 5 4 4 8 10 5 5 5 6 7 6 5 6 5 3 4 6 5 3 7 7 4 4 3 10 8 6 7 6 7 9 12 11 9 10 10 7 6 11 13 10 5 4 5 1 4 4 4 5 5 6 7 8
11 10 9 10 9 9 8 7 4 2 2 3 5 2 2 0 1 3 3 3 1 4 3 1 3 4 2 5 4 2 2 3 1 4 4 5 7 11 7 5 3 6 5 8 6 5 4 7 6 2 4 8 6 5 2 5 3 4 2 4 1 1 4 6 8 6 7 8 8 5 8 4 16 15 5 11 3 6 5 7 2 3 5 6 6 6 8
10 10 9 9 8 8 7 5 3 2 2 3 5 2 2 2 2 3 2 3 4 4 2 3 3 5 4 5 4 4 5 5 4 5 3 5 6 7 5 5 7 6 4 6 6 6 4 6 6 3 3 3 7 5 10 5 3 7 4 2 4 5 3 1 0 1 4 7 8 3 5 11 12 9 4 4 3 4 7 8 6 5 5 7 6 6 7
9 8 9 9 8 8 5 4 1 2 3 2 4 2 2 2 0 1 2 2 5 5 5 7 6 8 8 8 7 7 6 6 4 4 5 5 3 4 5 6 6 4 2 2 4 4 3 4 3 3 4 3 3 6 10 7 10 6 7 3 3 9 3 2 4 3 2 1 4 6 8 8 9 6 4 1 5 7 10 10 9 7 6 7 7 9 9
8 9 9 8 8 7 5 3 2 2 2 2 5 2 2 1 2 1 3 5 5 7 7 8 6 7 8 8 7 6 6 5 6 5 5 5 5 3 5 7 5 4 2 1 3 5 7 6 5 3 3 2 6 4 4 8 5 6 6 5 2 5 7 6 3 3 5 3 3 7 9 10 8 7 7 8 9 9 11 12 10 8 8 8 8 9 9
8 8 8 8 8 7 5 4 2 3 3 2 5 2 2 2 1 2 4 4 3 5 6 5 5 1 3 3 0 4 6 6 7 5 2 3 5 5 3 4 6 4 2 1 2 5 6 5 4 0 2 4 5 4 6 6 7 8 5 7 5 5 10 5 4 8 6 1 5 11 15 12 6 5 9 8 7 8 9 11 11 11 11 10 9 9 9
8 8 8 8 7 7 5 4 2 3 2 2 5 4 2 2 3 3 4 2 1 4 3 5 2 4 1 2 3 3 4 3 4 6 5 7 6 5 8 8 6 6 9 7 4 6 4 4 3 2 3 2 4 4 4 2 5 9 7 7 7 4 11 4 8 10 4 5 7 14 16 9 3 4 10 12 11 11 9 10 11 12 12 11 9 9 9
8 8 8 8 7 6 6 5 3 2 3 3 6 4 2 1 2 3 4 4 4 4 4 3 4 4 1 2 3 5 2 4 5 7 7 7 8 7 8 7 7 4 6 6 6 5 3 3 1 1 2 3 4 2 3 4 1 1 7 7 5 7 8 6 12 6 6 5 7 16 14 3 5 11 11 11 13 13 12 13 13 13 12 11 9 8 9
8 9 8 7 7 7 5 6 4 3 5 4 6 4 4 2 3 4 2 2 4 4 5 2 4 3 1 4 5 4 2 2 4 4 5 7 7 6 5 6 7 6 5 3 3 3 1 1 3 4 3 2 3 1 1 2 2 4 6 9 10 7 10 10 9 8 8 9 11 15 10 8 13 14 14 13 14 14 14 13 13 13 13 12 12 11 9
9 9 8 7 7 6 6 5 5 3 3 5 6 4 4 4 4 5 3 3 3 5 6 6 3 5 1 3 5 4 3 2 1 1 2 2 3 3 3 4 4 4 3 2 1 2 4 4 5 3 2 2 3 1 1 4 4 4 8 9 9 7 9 9 9 8 9 12 13 11 10 10 10 13 13 13 13 13 14 14 15 14 13 13 13 13 12
10 9 8 7 7 7 6 6 4 3 2 7 4 3 4 6 5 5 5 3 3 4 5 7 6 7 2 5 3 2 2 1 1 1 0 1 2 1 4 3 3 3 2 3 2 3 3 3 2 3 3 3 4 3 3 6 6 8 10 11 10 8 9 8 9 11 9 11 12 12 11 11 12 13 13 13 11 13 15 14 14 14 14 13 13 12 12
9 9 8 7 6 7 7 7 6 4 7 5 3 4 5 4 5 5 5 4 3 2 4 5 3 2 2 3 2 2 1 1 1 1 1 2 3 3 2 2 3 2 4 4 3 4 4 2 2 2 4 3 3 3 3 5 5 6 9 10 10 9 10 8 9 10 10 12 11 12 13 12 9 10 11 11 11 13 14 14 14 14 14 13 13 12 10
10 9 8 8 7 6 7 7 7 5 7 5 4 5 4 2 5 5 6 5 3 3 4 4 5 3 2 2 1 3 2 2 2 2 3 2 2 1 1 1 1 1 2 3 2 4 2 4 5 6 3 6 4 4 6 6 6 6 11 10 10 10 11 10 10 10 11 10 11 12 10 10 10 12 11 12 14 14 14 13 14 14 14 14 12 11 10
10 9 8 7 6 6 7 8 8 9 6 5 5 4 5 4 4 4 7 5 2 3 3 5 4 3 1 4 3 3 1 2 2 3 3 2 2 1 1 2 2 2 3 3 3 1 3 3 4 6 7 5 4 5 6 8 8 7 10 11 10 10 10 11 11 12 11 11 13 13 11 13 12 13 12 14 14 14 13 14 15 14 14 12 11 10 10
11 9 9 9 7 7 8 8 9 10 5 7 12 6 6 3 2 2 7 4 2 2 2 4 5 4 3 3 3 6 5 4 5 4 3 3 2 2 3 1 2 2 2 3 2 3 3 3 3 4 5 4 4 4 8 9 8 7 10 10 11 11 12 11 11 12 11 11 11 11 13 14 16 16 14 13 12 12 13 15 15 13 13 13 12 10 8
11 10 9 9 8 5 6 7 8 7 8 6 6 4 4 8 5 7 5 4 2 1 2 3 4 4 3 4 5 5 7 4 3 3 4 4 1 4 2 3 1 4 2 3 2 3 1 3 4 3 1 5 5 6 8 10 10 10 10 11 11 11 12 11 11 13 12 11 10 10 11 12 13 13 13 13 14 14 13 13 14 15 14 12 10 10 9
9 3 3 7 7 7 9 11 6 5 5 3 4 3 5 5 2 6 7 3 3 2 2 3 3 5 5 3 3 3 6 5 4 3 5 2 2 4 1 5 1 4 3 1 2 2 3 3 3 4 7 3 6 6 7 9 10 10 10 11 12 12 13 13 14 14 14 13 13 12 13 13 14 14 14 15 15 15 16 15 14 14 13 12 11 11 9
6 8 9 10 12 11 7 5 6 4 4 3 2 7 9 6 5 6 4 3 4 4 3 2 2 5 5 4 6 2 3 6 4 2 3 2 3 3 4 3 5 1 2 3 3 1 2 3 3 3 5 4 5 5 7 9 9 9 8 10 11 11 12 14 14 15 15 15 16 14 15 14 15 15 14 14 15 16 16 15 15 15 14 12 12 11 10
4 8 12 12 8 4 5 3 2 4 3 4 7 9 8 6 3 2 3 4 3 3 4 3 3 5 5 5 3 2 2 3 2 4 4 5 3 2 2 3 5 3 3 4 3 3 2 1 2 2 4 3 3 5 6 7 8 9 10 9 10 10 12 12 14 15 16 16 18 16 15 16 16 14 15 15 15 16 16 17 16 16 16 16 14 12 12
6 7 5 3 3 4 3 4 1 7 12 13 11 6 4 4 3 3 2 3 2 3 4 3 6 4 2 3 3 4 1 2 4 3 2 2 2 3 1 4 3 1 2 3 2 4 0 2 2 2 3 2 3 4 6 6 7 6 7 8 9 9 11 12 14 15 17 17 17 18 18 17 17 16 16 16 17 18 16 15 15 15 14 14 12 12 13
5 3 3 3 4 3 3 5 6 5 5 5 2 2 3 2 2 3 3 3 2 3 4 4 5 3 4 5 2 4 4 5 5 2 1 2 4 1 2 3 2 2 1 2 1 1 3 0 1 1 0 3 4 6 6 6 7 6 7 7 8 9 10 12 13 15 15 14 15 16 15 15 17 17 15 14 14 14 15 15 14 14 14 13 13 13 12
3 4 3 3 3 4 5 4 2 4 3 3 3 3 2 4 3 1 2 2 3 3 3 4 3 4 4 6 7 2 5 4 4 2 1 1 1 4 2 2 2 3 1 1 1 1 3 3 1 1 0 3 5 5 6 7 7 6 7 8 8 8 10 11 12 12 14 14 15 15 15 15 15 14 14 16 15 15 16 16 16 15 14 14 14 13 12
3 3 3 3 4 3 4 6 4 3 3 3 2 3 2 2 4 1 2 4 3 1 3 5 2 4 3 3 4 5 2 2 3 1 2 2 3 3 2 2 2 2 0 1 2 2 2 1 1 2 2 4 5 6 7 7 8 8 8 7 8 7 9 11 12 13 14 14 14 14 14 16 14 13 13 16 15 15 15 16 16 16 17 16 16 14 12
2 4 4 3 2 3 4 4 4 3 3 3 3 2 2 2 2 3 2 3 3 3 2 2 4 6 5 4 5 5 1 1 3 3 2 2 2 3 3 2 1 1 1 1 1 2 1 2 3 2 3 4 4 5 7 8 8 9 10 10 9 9 10 11 11 12 13 14 14 14 14 15 15 13 12 14 15 14 13 15 17 18 17 16 14 13 13
2 3 3 3 2 3 2 3 4 3 1 1 1 2 2 1 1 5 1 2 1 2 1 3 4 4 3 2 2 2 2 1 2 3 3 1 1 2 2 0 0 1 0 1 2 1 2 2 3 4 4 3 5 6 7 8 8 8 9 9 9 8 8 10 11 12 12 14 15 14 14 15 14 13 12 13 14 15 15 15 17 16 16 16 14 14 15
2 2 3 3 2 3 3 2 3 2 2 1 1 3 4 6 2 1 4 2 1 3 2 6 6 6 4 3 3 0 2 3 2 2 1 1 3 1 1 1 1 2 1 2 1 2 2 2 4 6 4 3 2 5 7 8 8 8 9 10 11 11 10 9 11 11 12 12 13 14 13 14 13 13 12 12 14 15 15 14 14 15 15 15 16 16 16
3 2 1 1 1 2 1 1 2 1 3 2 2 6 6 9 8 6 5 3 2 5 6 4 4 4 6 2 2 2 2 2 2 2 2 3 3 3 3 3 2 2 2 1 1 1 1 2 4 5 4 5 4 4 6 8 8 8 8 10 12 12 11 10 10 10 10 11 13 13 13 13 13 13 13 13 13 13 14 14 14 15 15 15 15 16 16
3 1 1 2 3 1 2 1 0 2 3 3 6 8 9 8 7 5 6 4 5 6 6 6 4 3 5 1 5 3 2 2 2 3 2 2 2 2 2 1 2 3 2 2 2 4 4 3 5 5 3 2 4 4 5 6 7 7 8 9 10 12 11 10 10 10 10 11 12 13 13 13 13 13 13 13 13 13 14 14 14 14 14 15 16 16 15
2 3 1 1 3 2 2 2 4 3 7 7 8 6 9 10 9 6 3 5 8 6 6 3 2 3 5 4 5 3 2 2 3 2 2 3 3 2 0 2 1 1 3 4 3 3 4 5 5 3 3 3 3 3 5 6 7 7 8 9 10 11 11 11 11 11 11 10 11 12 12 13 13 12 13 13 13 13 14 14 14 14 13 14 14 14 14
2 0 1 2 3 2 4 4 4 7 7 8 5 6 4 3 5 4 3 3 7 8 7 6 4 1 4 4 4 5 4 0 4 0 2 3 2 2 2 2 1 2 1 2 2 3 3 4 3 3 3 2 2 3 4 5 6 7 8 9 10 11 11 10 11 11 11 10 10 11 11 11 12 12 13 13 14 14 14 13 13 13 14 14 14 14 13
3 1 1 2 3 4 6 6 7 9 8 7 6 4 4 2 2 4 5 4 6 5 5 4 4 3 6 4 6 4 3 1 3 1 2 2 2 1 2 2 2 4 1 1 4 4 3 3 2 2 2 3 2 3 2 3 5 5 7 8 10 10 10 10 10 10 11 10 9 10 10 10 10 10 12 12 13 13 13 13 13 12 12 13 13 14 14
2 2 2 2 6 7 4 6 6 8 7 5 1 4 3 2 4 3 1 2 2 1 1 2 1 3 4 4 3 3 2 1 3 1 4 3 1 1 1 2 1 2 2 1 1 2 2 2 1 1 1 1 2 2 1 3 4 5 6 7 8 8 10 10 10 10 10 10 9 9 8 8 10 10 11 12 11 11 12 13 12 12 12 12 13 13 14
1 1 4 5 7 7 8 9 9 10 10 9 7 2 3 3 3 1 1 1 2 2 3 2 1 2 3 2 2 2 2 3 5 3 3 4 1 2 0 2 2 2 2 2 2 2 2 1 1 1 2 1 1 2 2 2 3 4 5 6 6 8 8 9 10 10 11 10 9 7 7 8 8 9 10 10 10 11 12 13 13 12 11 11 12 12 13
1 2 4 3 4 6 6 7 7 7 8 12 8 3 2 2 2 3 2 3 3 3 2 1 2 2 2 2 2 4 4 3 3 4 4 1 1 5 3 3 3 2 1 1 2 1 1 0 1 0 1 1 1 3 3 2 3 4 5 5 6 7 8 8 9 10 10 9 9 9 7 7 8 8 9 10 11 11 11 11 12 12 11 10 10 11 10
Wind_Direction
339 339 339 338 337 338 334 336 341 350 345 353 347 315 298 22 31 349 341 340 310 284 86 89 70 67 71 164 108 277 128 14 41 348 14 247 323 260 246 338 283 215 284 312 295 295 285 289 271 299 263 274 290 38 351 346 298 305 247 273 199 269 250 253 252 266 272 273 276 275 276 293 287 251 260 219 212 220 225 227 232 231 217 220 222 232 237
339 339 339 336 339 336 333 334 340 347 357 348 334 318 358 336 12 16 12 350 315 11 55 58 70 82 106 85 92 49 40 353 75 22 41 345 285 299 312 240 217 319 305 286 284 323 294 155 272 255 214 250 71 319 311 355 291 334 21 309 42 284 212 245 261 260 235 236 249 245 231 259 242 226 216 237 233 226 238 305 339 269 237 225 216 230 215
339 336 333 338 341 335 333 335 335 342 348 344 329 337 326 294 214 33 38 27 32 58 22 56 73 76 72 80 65 74 138 30 12 343 33 352 351 267 227 345 331 279 308 277 276 275 279 293 280 285 288 280 112 292 295 262 290 276 354 318 328 270 270 288 248 231 225 216 209 215 214 220 231 241 231 220 242 231 230 232 226 239 226 246 234 223 218
339 333 335 342 343 333 335 335 334 336 342 340 328 357 293 355 353 354 45 31 62 78 66 48 61 72 83 96 41 24 27 109 50 320 89 15 358 17 334 296 286 314 305 288 286 284 273 270 293 296 277 276 263 259 263 274 274 307 309 293 270 263 256 248 254 263 257 277 350 321 332 317 263 216 227 237 232 240 248 256 233 224 219 232 236 259 231
335 339 340 342 337 332 334 338 333 334 334 337 319 314 327 309 18 359 13 28 52 58 35 48 46 55 0 56 358 48 9 3 138 11 283 55 338 289 352 317 289 300 310 298 293 283 282 272 278 278 287 293 288 286 280 268 263 272 276 252 254 250 262 249 253 259 264 278 286 303 307 288 285 292 273 258 230 233 234 226 228 231 250 239 223 229 256
333 339 339 339 335 334 338 338 336 330 332 328 305 319 344 338 61 28 354 325 22 22 43 30 53 52 40 78 332 45 31 37 25 57 76 300 352 304 140 11 14 328 316 306 280 284 287 288 278 294 284 294 281 279 256 260 258 254 255 232 242 257 258 257 259 260 264 273 274 273 283 281 282 281 279 276 259 248 235 232 233 231 229 234 219 235 241
334 339 340 341 336 339 340 341 337 334 322 325 311 350 47 35 63 46 338 136 49 49 47 23 39 55 29 77 26 37 24 39 39 356 326 295 15 335 294 15 328 315 289 265 272 273 282 273 308 281 288 280 293 280 278 253 244 239 251 236 231 253 251 264 261 268 267 269 274 273 266 269 266 260 262 266 266 255 241 236 228 226 229 243 257 262 272
339 339 340 345 343 347 348 345 349 330 326 311 11 26 350 48 7 69 47 59 78 61 42 35 37 58 5 348 36 11 14 13 357 352 333 317 334 304 294 311 306 298 275 249 257 264 258 272 276 279 283 284 264 274 278 281 234 237 251 248 222 239 248 261 282 286 274 265 267 269 261 257 260 257 256 257 260 257 240 234 226 226 233 230 238 257 266
340 340 341 344 341 346 345 346 351 331 332 14 31 56 34 64 42 357 324 126 61 63 34 47 50 57 38 29 31 359 10 348 354 325 345 324 314 308 303 310 296 279 264 254 257 270 278 274 268 274 271 273 280 281 260 251 258 232 243 241 233 223 258 269 272 275 270 265 267 264 260 253 252 255 254 255 249 239 231 224 232 227 222 220 221 230 241
340 341 340 340 342 344 345 346 350 346 328 354 343 53 43 71 62 323 314 50 27 42 65 37 154 61 37 9 15 344 355 327 342 323 95 301 303 312 302 303 300 281 258 265 276 287 284 283 283 282 278 270 269 262 260 256 255 256 253 239 246 236 253 258 264 268 275 276 270 267 257 255 249 240 239 241 239 239 82 88 130 234 325 221 214 220 9
334 337 338 340 342 344 346 347 349 354 343 12 2 23 25 22 19 331 279 297 106 41 20 68 40 67 358 10 341 322 320 331 15 322 337 314 313 302 293 294 296 302 304 322 316 303 290 285 281 274 268 264 261 257 255 252 247 246 248 246 239 242 245 248 250 261 274 286 282 270 244 236 235 238 230 216 228 185 153 183 181 161 237 258 357 359 347
336 335 337 340 342 342 342 342 347 347 326 4 336 346 13 344 319 330 328 20 79 60 38 40 18 32 347 348 327 332 321 321 327 307 298 304 309 312 303 293 289 284 346 320 306 301 294 281 269 263 258 258 256 257 256 253 247 237 232 237 238 232 234 244 243 250 259 273 284 263 240 237 229 262 258 212 215 179 166 134 152 158 11 320 265 333 337
335 334 339 339 339 337 339 342 338 341 319 317 270 322 5 337 342 360 347 336 55 37 32 57 52 33 353 329 329 329 325 315 297 287 278 294 303 297 288 300 297 310 319 311 310 306 301 297 292 285 281 276 268 259 253 248 246 237 230 221 227 228 228 238 236 247 262 264 256 249 238 316 337 67 24 352 109 116 123 110 90 70 40 318 258 344 335
332 333 335 336 336 339 342 346 331 339 320 291 304 335 192 252 283 22 5 318 37 47 19 83 14 360 346 360 337 326 311 311 314 299 296 300 300 304 310 298 313 316 306 310 301 305 299 298 308 295 291 284 265 259 249 266 256 236 224 219 215 223 228 225 244 209 238 238 240 248 293 285 227 62 25 350 100 202 247 197 122 47 19 17 4 1 354
331 333 336 336 337 342 348 349 333 319 320 277 290 259 216 218 227 282 76 285 348 6 17 1 1 344 333 352 348 331 331 334 319 329 312 294 287 310 311 315 313 307 311 307 307 309 299 299 292 322 304 293 305 306 317 276 251 232 222 212 206 212 218 207 232 229 226 244 257 265 253 247 186 100 8 345 341 311 295 278 151 50 27 18 18 18 4
331 334 337 340 342 353 1 360 355 321 316 259 275 264 213 202 172 159 314 345 319 90 57 16 334 322 329 347 339 337 333 322 337 302 263 233 303 315 304 306 315 305 305 309 284 303 307 311 312 311 307 302 296 283 268 350 300 198 199 194 199 204 215 215 218 232 217 227 244 253 263 246 49 5 344 338 336 323 307 275 197 90 23 29 27 31 20
331 334 339 343 351 351 354 3 356 347 334 247 307 327 55 153 196 185 166 180 230 355 14 349 316 309 316 329 337 321 349 337 339 335 335 343 343 323 322 315 302 293 321 310 316 301 310 311 309 299 295 246 274 294 295 236 246 167 165 180 191 195 199 203 227 234 232 243 238 245 253 318 27 358 343 331 323 323 300 224 193 101 53 36 38 39 22
330 334 341 345 349 346 348 3 358 349 317 271 294 317 161 188 218 206 211 220 280 323 24 349 322 321 359 352 313 322 296 299 293 301 281 313 303 343 336 316 323 346 305 322 327 324 328 325 331 327 313 236 230 278 300 305 157 148 158 169 175 185 200 203 222 228 233 236 256 270 271 97 27 353 339 337 324 299 238 219 74 88 68 36 44 38 25
331 336 339 343 343 344 349 349 354 354 332 276 291 256 201 252 198 243 297 274 266 7 68 287 305 292 305 295 293 333 321 328 330 318 340 316 29 330 300 317 315 337 348 344 334 341 326 325 321 311 305 320 319 347 329 14 50 120 140 153 161 187 204 217 227 232 230 234 244 253 292 36 354 352 346 19 321 213 218 51 304 24 37 40 31 28 21
331 337 338 338 340 341 343 346 335 352 312 244 277 313 30 309 239 245 250 277 302 300 315 303 226 273 332 313 328 320 317 208 317 302 325 319 349 328 271 181 133 336 335 357 347 6 322 331 338 307 305 328 341 316 10 58 33 35 45 20 10 138 213 218 221 232 248 240 255 250 252 76 0 343 0 28 12 24 334 313 24 18 10 15 17 22 14
329 333 335 335 334 336 344 345 335 337 300 230 266 286 191 124 231 232 262 288 302 308 93 107 284 279 283 277 278 296 296 325 332 313 344 302 344 325 3 346 344 345 357 349 337 342 349 320 339 331 295 304 322 331 356 347 67 49 23 51 71 7 255 283 108 330 246 223 225 255 357 317 339 3 17 31 36 340 330 339 336 354 349 359 345 5 2
328 332 326 330 330 331 339 331 352 308 301 232 262 248 250 127 123 11 284 270 267 262 327 343 313 282 275 267 274 277 278 279 293 295 298 316 328 330 307 307 314 333 357 326 306 295 326 340 290 325 333 331 311 3 336 33 41 351 33 359 123 15 345 324 297 24 279 306 4 339 321 341 342 332 341 22 346 354 334 319 319 318 341 337 335 334 338
326 326 324 320 327 326 329 322 244 268 291 220 232 255 305 143 181 229 256 261 251 265 270 261 250 255 244 242 245 258 262 266 274 263 266 283 310 302 307 314 312 335 305 71 322 308 305 316 302 324 293 351 333 320 24 33 43 358 21 20 21 344 357 318 279 308 321 244 296 352 343 342 344 62 25 16 359 350 338 329 323 317 320 324 323 326 322
322 317 317 318 311 322 324 320 221 222 269 223 254 252 237 263 253 224 220 243 276 297 229 231 247 289 8 359 227 199 229 239 244 265 259 242 281 316 270 269 318 303 259 160 252 290 309 298 286 335 319 8 311 12 5 43 29 335 352 18 343 355 2 341 352 322 311 215 9 351 341 332 317 29 359 4 1 341 331 321 319 311 309 312 313 316 314
314 318 315 313 309 296 301 299 216 223 236 260 251 234 277 220 212 225 269 312 284 317 346 162 146 47 306 311 259 260 242 242 219 223 217 215 237 282 305 332 327 307 307 310 278 259 233 288 305 47 346 24 300 51 350 0 64 356 31 19 345 3 348 343 344 326 333 335 353 346 335 316 238 37 353 338 342 333 324 316 314 309 304 301 307 310 308
311 312 314 308 302 299 285 279 290 236 212 265 296 256 228 305 152 229 267 265 266 270 303 12 102 143 284 285 350 331 337 229 216 209 219 222 231 263 298 311 305 271 269 278 257 280 308 258 253 65 344 66 337 32 43 37 67 353 30 19 337 303 328 11 330 330 331 334 351 347 337 67 41 351 345 339 333 331 324 323 317 309 304 306 311 312 312
312 309 307 304 298 294 284 266 242 219 211 234 232 225 233 210 193 211 265 334 297 221 234 328 26 126 191 359 15 334 110 204 191 216 216 225 243 267 276 295 306 307 297 269 245 263 244 331 14 32 355 10 314 276 277 122 58 28 18 10 354 1 12 341 343 351 354 357 344 347 345 328 325 334 335 331 330 327 322 317 317 314 315 318 315 313 312
308 305 299 294 290 281 278 264 249 234 198 222 234 235 235 237 217 222 243 249 293 320 324 317 311 30 49 310 11 9 38 165 213 207 253 243 257 274 285 304 306 298 315 291 158 48 32 26 25 348 287 324 301 46 168 157 172 39 23 9 358 9 351 347 352 341 324 333 339 338 324 308 312 320 325 328 328 325 324 322 315 314 312 311 311 311 312
307 303 295 288 281 275 261 254 249 232 204 239 209 228 242 239 235 218 233 231 265 286 292 280 280 265 313 37 355 55 93 47 156 139 134 127 157 98 61 35 22 2 31 50 57 47 39 57 348 359 352 333 269 10 13 33 35 32 10 352 357 358 348 345 336 321 318 335 337 333 325 320 319 329 334 327 325 325 322 317 313 310 313 313 311 308 308
303 300 293 282 270 264 256 247 242 217 212 211 213 233 242 183 201 220 204 220 234 291 294 310 275 88 132 202 83 73 111 177 116 154 157 133 122 129 99 78 70 37 41 30 11 40 37 24 26 25 23 353 320 11 28 23 45 42 8 357 357 353 351 350 342 342 329 334 333 331 324 318 327 332 328 324 328 326 320 317 317 313 309 311 306 304 302
303 295 291 282 269 253 245 234 222 184 214 222 233 253 281 305 132 198 161 200 203 266 298 277 285 341 220 139 327 61 88 169 167 128 135 132 140 150 139 322 42 354 23 55 27 43 333 28 6 50 44 25 350 27 29 21 28 20 4 0 1 354 350 348 342 342 336 335 333 326 320 331 336 332 330 334 328 327 322 318 316 313 310 308 303 300 298
303 293 278 275 266 249 243 231 221 193 211 229 261 315 358 15 359 124 161 219 166 244 280 305 276 231 292 158 154 165 146 148 206 181 178 211 200 205 212 276 4 27 353 336 21 285 30 22 7 31 32 18 309 25 26 26 18 6 353 4 3 356 347 347 345 346 342 340 339 331 333 338 341 341 330 330 327 327 324 319 316 316 314 305 301 299 294
300 283 264 258 251 239 228 217 200 202 218 325 326 270 252 221 283 209 177 187 210 276 297 277 303 333 273 92 150 180 186 200 202 220 193 205 257 218 277 263 298 271 126 257 358 16 1 354 324 21 37 5 22 24 25 27 8 355 3 9 3 358 354 355 351 350 348 347 350 341 339 335 334 333 332 329 330 331 329 325 323 320 316 317 310 307 300
305 287 253 233 227 218 200 194 185 220 287 276 246 222 159 133 174 227 200 203 291 318 268 273 307 300 313 127 244 144 203 232 217 210 233 167 228 261 281 272 251 277 162 305 56 262 26 299 359 10 333 41 30 23 22 19 9 5 8 7 4 358 1 0 1 358 357 353 348 344 339 334 330 332 334 338 338 339 335 331 330 330 327 323 320 314 304
332 328 144 165 173 170 155 153 158 208 258 265 270 74 99 166 180 176 220 223 269 221 249 239 266 306 315 274 263 136 218 229 244 200 270 134 167 274 285 270 155 265 102 173 240 314 328 8 339 323 29 344 26 19 13 357 358 2 7 6 6 360 1 1 3 360 358 356 353 352 348 345 343 346 345 341 342 343 341 339 338 334 330 329 327 321 312
58 101 122 131 138 148 143 200 230 230 226 228 49 95 120 144 182 189 208 263 283 306 284 304 291 285 312 320 340 126 215 240 247 246 254 319 222 198 258 278 268 212 54 252 298 260 321 29 287 16 12 13 27 2 341 346 347 355 2 6 6 3 2 357 356 352 355 359 1 357 353 352 352 352 347 344 343 344 344 340 339 338 336 332 328 324 313
107 118 129 146 159 187 217 226 159 231 353 47 95 118 140 162 111 241 223 247 211 246 273 292 268 288 318 319 298 104 201 279 121 245 211 221 262 92 244 226 258 87 217 222 234 280 77 36 330 11 32 15 3 346 335 337 340 349 354 359 0 2 360 359 360 353 354 358 1 359 356 354 353 352 350 349 347 344 346 347 345 338 336 332 326 321 312
121 171 177 182 212 244 237 188 188 95 103 114 137 149 158 219 211 186 198 231 210 208 230 233 257 293 307 293 311 80 292 248 160 244 227 97 251 192 179 268 6 352 277 322 23 46 256 233 347 22 45 35 336 359 351 335 339 346 346 353 358 360 1 360 358 357 359 359 1 359 355 354 354 354 353 351 350 348 347 344 342 340 337 333 323 320 322
222 212 241 245 276 287 360 89 107 155 161 134 241 244 196 180 227 227 196 175 165 225 196 232 273 293 298 287 245 143 270 326 298 258 258 207 277 241 182 240 131 250 290 266 145 231 261 129 77 44 316 7 346 11 351 352 337 343 347 352 355 357 358 3 3 3 3 3 359 1 360 355 352 351 350 349 347 344 344 344 344 344 340 336 330 331 329
222 234 283 271 280 51 89 109 164 179 173 224 191 247 268 166 241 302 123 240 213 195 182 246 262 295 307 307 315 296 156 239 277 284 301 285 178 298 69 272 146 238 244 270 80 179 291 328 107 270 311 21 354 354 352 355 348 345 349 349 355 358 357 358 2 4 0 3 3 3 3 1 1 355 349 348 349 347 347 348 349 347 345 339 336 337 334
206 265 264 298 58 128 136 152 173 216 224 222 225 207 241 226 207 283 235 261 286 72 184 298 278 268 207 238 255 296 111 248 283 266 227 269 122 247 204 275 71 269 227 274 128 230 267 275 270 304 5 359 346 350 354 355 358 353 351 352 344 359 2 351 358 4 3 3 2 4 4 5 6 4 355 350 351 350 349 347 349 349 348 346 343 340 330
10 341 16 38 60 110 147 186 209 231 219 245 278 256 214 265 178 203 223 297 17 342 176 225 292 328 342 328 317 310 265 328 328 315 331 326 152 257 311 336 71 285 272 74 256 234 310 283 317 330 11 2 348 354 355 360 2 359 359 357 352 350 354 353 353 3 4 3 4 3 4 6 8 8 0 352 353 352 349 349 353 354 353 348 345 343 342
264 263 265 236 209 213 225 247 194 228 259 224 218 277 248 257 284 328 346 197 126 267 31 196 248 264 199 194 224 205 358 100 265 219 206 194 98 233 278 336 193 256 92 165 256 329 309 346 324 343 354 352 352 353 355 3 4 5 6 6 7 6 352 348 352 359 6 5 4 4 7 9 11 12 3 356 358 357 358 357 355 356 356 355 352 353 357
192 220 228 195 236 209 215 258 175 220 248 238 252 276 305 310 330 176 288 21 355 273 4 329 345 333 334 121 312 120 199 207 209 286 328 165 248 281 241 242 283 50 201 241 355 314 346 324 328 339 347 356 4 355 354 358 4 358 7 6 8 12 16 354 351 357 5 5 5 6 10 13 15 14 12 6 4 4 3 3 360 358 358 360 4 5 5
236 229 229 250 225 175 162 271 191 232 264 286 246 299 313 310 323 324 333 40 303 316 317 301 322 316 306 48 233 196 273 341 105 277 227 218 247 194 270 347 34 229 253 322 303 286 290 330 1 334 354 344 27 358 359 358 356 357 358 359 8 8 14 8 358 0 4 2 5 7 11 14 14 14 17 14 9 7 8 9 4 3 6 9 7 11 9
215 258 227 257 294 243 221 275 187 260 255 289 298 318 303 305 310 338 26 359 307 308 317 342 317 291 293 54 305 340 209 223 245 220 271 315 301 325 6 330 263 295 316 308 326 330 343 347 345 4 21 356 49 37 354 353 358 357 352 3 3 8 11 8 5 5 8 3 2 8 11 12 15 14 17 17 14 11 13 12 12 11 10 14 15 12 9
270 225 254 265 273 245 217 263 262 301 319 313 313 342 359 0 354 18 49 322 301 307 311 316 303 347 328 314 277 229 196 239 282 26 289 281 340 357 55 302 327 314 319 328 339 326 331 2 4 19 31 33 54 10 345 357 3 357 355 357 3 7 8 8 8 5 9 3 4 6 10 13 15 17 16 18 22 20 20 17 15 14 13 16 17 16 15
255 247 263 256 253 238 249 269 308 297 294 300 336 91 109 358 349 327 352 326 298 301 305 314 305 7 267 195 236 286 296 299 292 110 14 332 288 342 342 310 316 328 346 290 321 343 353 3 9 31 66 337 34 51 348 355 6 0 352 358 2 6 8 12 9 5 5 9 3 5 8 12 18 18 18 20 23 26 25 24 21 17 16 17 17 18 17
318 285 256 263 274 296 290 315 310 304 310 353 74 82 57 12 219 238 284 315 302 320 359 4 22 320 294 323 300 296 286 67 294 19 234 238 292 307 295 328 329 309 42 329 335 9 14 12 28 5 31 10 20 74 350 1 16 6 3 2 2 3 6 8 10 8 3 9 7 4 5 11 19 21 22 22 22 24 27 29 29 29 24 20 20 21 23
230 228 224 244 264 260 265 277 276 303 338 358 174 110 75 60 294 269 336 293 14 59 154 88 85 279 293 307 294 312 307 345 322 294 280 287 14 297 300 323 281 272 339 38 24 35 23 22 87 108 60 23 17 75 25 28 41 12 8 5 1 4 8 6 10 8 3 3 9 6 360 11 18 18 23 27 27 25 27 29 33 35 34 28 25 24 24
230 265 265 266 281 309 321 313 332 323 320 340 339 148 173 217 228 172 104 4 261 205 87 290 359 307 301 290 275 304 5 350 272 279 317 327 11 270 262 248 305 2 3 47 5 11 36 16 354 98 163 174 113 79 66 34 18 21 13 7 9 8 8 10 9 6 2 360 10 17 4 18 22 19 26 27 30 28 29 33 35 36 38 37 34 28 25
212 232 264 249 250 275 295 303 297 312 353 335 334 108 245 3 139 170 148 218 234 241 228 170 253 269 281 285 328 331 296 265 274 284 276 123 291 311 338 328 351 35 339 339 60 53 37 74 97 289 220 189 14 78 80 18 20 21 20 11 10 12 11 11 9 9 3 4 13 11 3 15 18 15 19 28 29 29 29 30 32 35 38 38 35 34 34